DELTA 1 DEB, 42083

Orbit data source: Space-Track

DELTA 1 DEB, 42083 is space debris in SSO originally from a launch on Sun, 15 Dec 1968 UTC launched from the Air Force Western Test Range (AFWTR). Debris objects in space refer to the collection of defunct objects orbiting the Earth. Examples of debris include non-operational satellites, rocket bodies, and fragments generated from explosions, collisions, or faulty payload assembly.

Loading next visibility...
Identifier
42083, 1968-114K
Orbit
SSO
Country
Flag of USUS
Related business
Manufacturer
Aerojet
Mission
Spacecraft
Bus & Motor
Unknown
Mass
Unknown
Launch date (UTC)
1968-12-15 (57 years ago)
Launch vehicle
Unknown
Launch site
Air Force Western Test Range (AFWTR)
Object type
Payload
Rocket body
Debris
Shape & HBR
Unknown shape, 0.1 m
Radar Cross Section
Small (<0.1 m²)

Expand to show TLE details & history
Last TLE update: 1 week ago

TLE from 1 week ago
0 DELTA 1 DEB
1 42083U 68114K   25294.27497414  .00000339  00000-0  10508-2 0  9998
2 42083 101.8852 304.0930 0281380 248.9998 120.3674 13.02160180 17074
Epoch: 2025-10-21T06:35Z
TLE epoch observation values (Epoch: 2025-10-21T06:35:57.765Z)
Latitude
11.797°
Longitude
172.63017°
Altitude
1,368.506 km
Speed
7.122 km/s
True Right ascension
20h 06m 20s
True Declination
11° 44' 02"
Sunlit
Object was in daylight at epoch
Visualization orbit readout
Latitude
Unknown
Longitude
Unknown
Altitude
Unknown
Speed
Unknown
Apparent Right ascension
Unknown
Apparent Declination
Unknown
Sunlit
N/A
Visualization observer readout
Local Sidereal Time
20:58:31
Azimuth
Unknown
Elevation
Unknown
Doppler factor
Unknown
Orbital elements
Apogee altitude
1,465.794 km
Perigee altitude
1,036.45 km
Semi-major axis
7,629.259 km
Eccentricity
0.02814
Inclination
101.8852°
RAAN
304.093°
Arg. of periapsis
248.9998°
True anomaly
123.09973°
Mean anomaly
120.3674°
Eccentric anomaly
121.7385°
Mean motion
3.25701 °/min
Orbital period
110.53 mins
BSTAR
0.0010508
Loading maneuver chart data...
Computing Atmospheric mass density...
Loading historical data...
Loading historical data...
Loading historical data...
Loading historical data...
Loading historical data...
Loading historical data...
Loading historical data...

Documentation

Showing up to 5 results
|